Date String (YYYY-MM-DD hh:mm:ss) UTC,Instrument flags,Ambient pressure (hPa),Sample flow (lpm),Bypass flow (lpm),Sample temperature (°C),Ambient temperature (°C),ASC tube jacket temperature (°C),LED temperature (°C),Box temperature (°C),Sample RH (%),Span deviation,Mass concentration (μg/m³),Mass concentration (μg/m³),Mass concentration (μg/m³)
DateTimeUTC,F1_M11,P_M11,Q1_M11,Q2_M11,T1_M11,T2_M11,T3_M11,T4_M11,T5_M11,U1_M11,ZSPAN_M11,X0_M11,X2_M11,X1_M11
2022-10-12 22:00:00,,0829.5,5.01,0.00,30.7,26.2,00.0,39.4,32.2,13.3,0001.7,0027.04,0007.21,0005.79
2022-10-12 22:01:00,,0829.5,4.99,0.00,30.5,26.5,00.0,39.4,32.1,13.5,0001.4,0026.59,0007.23,0005.80
2022-10-12 22:02:00,,0829.5,5.01,0.00,30.4,27.0,00.0,39.3,32.0,13.5,0001.2,0026.10,0007.27,0005.80
2022-10-12 22:03:00,,0829.5,4.99,0.00,30.4,27.4,00.0,39.3,32.0,13.6,0001.1,0025.14,0007.35,0005.80
2022-10-12 22:04:00,,0829.5,5.00,0.00,30.4,27.8,00.0,39.2,32.1,13.7,0001.7,0023.77,0007.34,0005.79
2022-10-12 22:05:00,,0829.5,5.00,0.00,30.3,28.1,00.0,39.2,32.1,13.6,0001.6,0022.29,0007.39,0005.79
2022-10-12 22:06:00,,0829.5,5.01,0.00,30.3,28.3,00.0,39.2,32.1,13.5,0002.0,0023.41,0007.40,0005.79
2022-10-12 22:07:00,,0829.5,4.98,0.00,30.3,28.5,00.0,39.2,32.1,13.5,0002.3,0024.50,0007.41,0005.81
2022-10-12 22:08:00,,0829.5,5.01,0.00,30.3,28.6,00.0,39.2,32.2,13.5,0002.6,0024.09,0007.43,0005.84
2022-10-12 22:09:00,,0829.4,5.01,0.00,30.3,28.7,00.0,39.2,32.2,13.6,0002.7,0024.35,0007.44,0005.83
2022-10-12 22:10:00,,0829.5,4.98,0.00,30.3,28.8,00.0,39.2,32.2,13.6,0002.2,0022.70,0007.44,0005.81
2022-10-12 22:11:00,,0829.5,5.00,0.00,30.4,28.9,00.0,39.2,32.2,13.6,0001.9,0021.80,0007.39,0005.78
2022-10-12 22:12:00,,0829.5,5.01,0.00,30.4,29.0,00.0,39.2,32.3,13.5,0002.4,0023.23,0007.31,0005.77
2022-10-12 22:13:00,,0829.5,4.98,0.00,30.4,29.0,00.0,39.2,32.3,13.4,0002.4,0023.71,0007.35,0005.76
2022-10-12 22:14:00,,0829.6,5.01,0.00,30.4,29.1,00.0,39.2,32.3,13.3,0002.5,0023.48,0007.31,0005.75
2022-10-12 22:15:00,,0829.5,4.99,0.00,30.4,29.1,00.0,39.2,32.3,13.4,0002.2,0023.92,0007.38,0005.74
2022-10-12 22:16:00,,0829.6,5.00,0.00,30.4,29.1,00.0,39.2,32.3,13.4,0002.5,0023.15,0007.36,0005.74
2022-10-12 22:17:00,,0829.5,5.01,0.00,30.5,29.1,00.0,39.2,32.4,13.4,0002.6,0022.49,0007.37,0005.72
2022-10-12 22:18:00,,0829.5,4.99,0.00,30.5,29.1,00.0,39.2,32.3,13.3,0002.6,0021.00,0007.34,0005.71
2022-10-12 22:19:00,,0829.5,5.01,0.00,30.5,29.0,00.0,39.3,32.3,13.4,0002.2,0020.71,0007.30,0005.69
2022-10-12 22:20:00,,0829.4,5.00,0.00,30.5,29.0,00.0,39.3,32.3,13.4,0001.9,0020.94,0007.30,0005.70
2022-10-12 22:21:00,,0829.5,5.00,0.00,30.5,29.1,00.0,39.3,32.4,13.4,0001.4,0021.04,0007.30,0005.71
2022-10-12 22:22:00,,0829.5,5.00,0.00,30.5,29.1,00.0,39.3,32.4,13.4,0000.0,0020.27,0007.33,0005.73
2022-10-12 22:23:00,,0829.5,4.99,0.00,30.5,29.1,00.0,39.3,32.4,13.4,0000.0,0018.67,0007.40,0005.74
2022-10-12 22:24:00,,0829.5,5.01,0.00,30.5,29.1,00.0,39.3,32.4,13.5,0000.0,0018.69,0007.30,0005.73
2022-10-12 22:25:00,,0829.5,5.00,0.00,30.5,29.1,00.0,39.3,32.4,13.4,0000.0,0018.40,0007.24,0005.72
2022-10-12 22:26:00,,0829.5,4.98,0.00,30.5,29.0,00.0,39.3,32.3,13.3,0000.0,0018.69,0007.23,0005.74
2022-10-12 22:27:00,,0829.5,5.01,0.00,30.5,29.0,00.0,39.3,32.4,13.3,0000.0,0018.21,0007.25,0005.75
2022-10-12 22:28:00,,0829.5,5.01,0.00,30.5,29.0,00.0,39.3,32.4,13.3,0000.0,0018.15,0007.32,0005.77
2022-10-12 22:29:00,,0829.5,4.99,0.00,30.5,29.1,00.0,39.3,32.4,13.4,0000.0,0019.10,0007.35,0005.77
2022-10-12 22:30:00,,0829.5,5.00,0.00,30.6,29.2,00.0,39.4,32.4,13.5,0000.0,0019.85,0007.35,0005.76
2022-10-12 22:31:00,,0829.5,5.00,0.00,30.6,29.2,00.0,39.4,32.4,13.5,0000.0,0019.74,0007.33,0005.74
2022-10-12 22:32:00,,0829.6,5.00,0.00,30.6,29.2,00.0,39.4,32.4,13.5,0000.0,0019.84,0007.35,0005.75
2022-10-12 22:33:00,,0829.5,4.99,0.00,30.6,29.3,00.0,39.4,32.5,13.4,0000.0,0019.39,0007.35,0005.75
2022-10-12 22:34:00,,0829.6,5.01,0.00,30.6,29.2,00.0,39.4,32.5,13.3,0000.0,0020.14,0007.32,0005.74
2022-10-12 22:35:00,,0829.5,4.99,0.00,30.6,29.2,00.0,39.4,32.4,13.3,0000.0,0020.09,0007.29,0005.74
2022-10-12 22:36:00,,0829.5,4.99,0.00,30.6,29.1,00.0,39.4,32.5,13.3,0000.0,0020.62,0007.28,0005.72
2022-10-12 22:37:00,,0829.5,5.01,0.00,30.6,29.2,00.0,39.4,32.4,13.3,0000.0,0020.53,0007.21,0005.69
2022-10-12 22:38:00,,0829.5,4.98,0.00,30.6,29.2,00.0,39.4,32.5,13.2,0000.1,0021.57,0007.15,0005.67
2022-10-12 22:39:00,,0829.5,5.01,0.00,30.6,29.2,00.0,39.4,32.5,13.2,0000.0,0021.69,0007.07,0005.64
2022-10-12 22:40:00,,0829.6,5.01,0.00,30.7,29.2,00.0,39.5,32.5,13.3,0000.0,0021.40,0007.03,0005.61
2022-10-12 22:41:00,,0829.6,4.98,0.00,30.7,29.3,00.0,39.5,32.5,13.3,0000.3,0020.52,0007.07,0005.59
2022-10-12 22:42:00,,0829.7,5.01,0.00,30.7,29.3,00.0,39.5,32.5,13.3,0000.4,0019.87,0007.07,0005.59
2022-10-12 22:43:00,,0829.7,5.01,0.00,30.7,29.3,00.0,39.5,32.5,13.2,0001.1,0019.94,0007.03,0005.57
2022-10-12 22:44:00,,0829.7,5.00,0.00,30.7,29.3,00.0,39.5,32.5,13.4,0000.6,0019.48,0006.97,0005.54
2022-10-12 22:45:00,,0829.7,4.99,0.00,30.7,29.3,00.0,39.5,32.5,13.2,0000.1,0019.51,0006.95,0005.53
2022-10-12 22:46:00,,0829.6,5.01,0.00,30.7,29.2,00.0,39.5,32.5,13.2,0001.2,0019.26,0006.95,0005.53
2022-10-12 22:47:00,,0829.5,4.98,0.00,30.7,29.0,00.0,39.5,32.5,13.2,0001.5,0019.93,0006.98,0005.53
2022-10-12 22:48:00,,0829.6,5.02,0.00,30.7,27.5,00.0,39.5,32.4,13.2,0000.8,0020.23,0007.03,0005.54
2022-10-12 22:49:00,,0829.6,4.99,0.00,30.6,26.7,00.0,39.4,32.3,13.3,0000.0,0019.12,0007.05,0005.53
2022-10-12 22:50:00,,0829.7,5.00,0.00,30.6,26.8,00.0,39.3,32.1,13.4,0000.0,0018.86,0007.07,0005.52
2022-10-12 22:51:00,,0829.7,5.00,0.00,30.4,27.1,00.0,39.3,32.0,13.4,0001.6,0018.83,0007.07,0005.52
2022-10-12 22:52:00,,0829.7,4.99,0.00,30.4,27.5,00.0,39.3,32.0,13.4,0000.2,0018.76,0007.03,0005.52
2022-10-12 22:53:00,,0829.7,5.00,0.00,30.4,27.8,00.0,39.2,32.1,13.6,0000.0,0019.22,0006.99,0005.50
2022-10-12 22:54:00,,0829.6,5.00,0.00,30.3,28.0,00.0,39.2,32.1,13.5,0000.0,0019.73,0006.94,0005.48
2022-10-12 22:55:00,,0829.7,5.01,0.00,30.3,28.2,00.0,39.2,32.1,13.5,0000.0,0020.18,0006.92,0005.47
2022-10-12 22:56:00,,0829.7,5.01,0.00,30.3,28.3,00.0,39.2,32.1,13.5,0001.7,0019.39,0006.87,0005.46
2022-10-12 22:57:00,,0829.7,5.01,0.00,30.3,28.4,00.0,39.2,32.1,13.5,0002.5,0020.16,0006.87,0005.45
2022-10-12 22:58:00,,0829.7,4.98,0.00,30.3,28.5,00.0,39.2,32.1,13.5,0002.5,0019.64,0006.79,0005.42
2022-10-12 22:59:00,,0829.7,5.01,0.00,30.3,28.5,00.0,39.2,32.0,13.5,0002.6,0019.62,0006.76,0005.40
